Weather History for Naples, FL

Change the Weather History Date:

Monday, December 17, 2012

  Actual Average Record
Temperature  
Mean Temperature 73 °F 67 °F  
Max Temperature 80 °F 76 °F 88 °F (1959)
Min Temperature 65 °F 57 °F 34 °F (1968)
Degree Days  
Heating Degree Days 0 2  
Month to date heating degree days 0 29  
Since 1 July heating degree days 13 43  
Cooling Degree Days 8 4  
Month to date cooling degree days 122 78  
Year to date cooling degree days 4088 3897  
Growing Degree Days 22 (Base 50)    
Moisture  
Dew Point 69 °F    
Average Humidity 86    
Maximum Humidity 100    
Minimum Humidity 71    
Precipitation  
Precipitation 0.00 in 0.05 in 1.05 in (1982)
Month to date precipitation 1.65 0.80  
Year to date precipitation 37.80 51.24  
Snow  
Snow 0.00 in - - ()
Month to date snowfall 0.0  
Since 1 July snowfall 0.0  
Snow Depth 0.00 in    
Sea Level Pressure  
Sea Level Pressure 29.95 in    
Wind  
Wind Speed 5 mph (SSW)    
Max Wind Speed 17 mph    
Max Gust Speed 22 mph    
Visibility 9 miles    
Events      
T = Trace of Precipitation, MM = Missing Value Source: NWS Daily Summary

Daily Weather History Graph

Daily Weather History Graph

Search for Another Location

Airport:

Trip Planner

Search our weather history database for the weather conditions in past years. The results will help you decide how hot, cold, wet, or windy it might be!

Date:

Astronomy

Dec. 17, 2012 Rise Set
Actual Time 7:08 AM EST 5:38 PM EST
Civil Twilight 6:43 AM EST 6:04 PM EST
Nautical Twilight 6:14 AM EST 6:32 PM EST
Astronomical Twilight 5:45 AM EST 7:01 PM EST
Moon 10:39 AM EST (12/17) 10:32 PM EST (12/17)
Length of Visible Light 11h 21m
Length of Day
10h 30m
Waxing Crescent, 24% of the Moon is Illuminated
Dec 17
Waxing Crescent
Dec 20
First Quarter
Dec 28
Full
Jan 4
Last Quarter
Jan 11
New

Hourly Weather History & Observations

Time (EST) Temp. Dew Point Humidity Pressure Visibility Wind Dir Wind Speed Gust Speed Precip Events Conditions
12:53 AM 68.0 °F 66.9 °F 96% 29.99 in 10.0 mi Calm Calm - N/A   Mostly Cloudy
1:53 AM 68.0 °F 66.9 °F 96% 29.99 in 10.0 mi Calm Calm - N/A   Mostly Cloudy
2:53 AM 66.9 °F 66.9 °F 100% 29.97 in 10.0 mi Calm Calm - N/A   Clear
3:53 AM 66.9 °F 66.9 °F 100% 29.96 in 10.0 mi Calm Calm - N/A   Clear
4:53 AM 66.0 °F 66.0 °F 100% 29.96 in 10.0 mi Calm Calm - N/A   Clear
5:53 AM 64.9 °F 64.9 °F 100% 29.95 in 9.0 mi Calm Calm - N/A   Clear
7:53 AM 64.9 °F 64.9 °F 100% 29.96 in 10.0 mi Calm Calm - N/A   Clear
8:53 AM 72.0 °F 68.0 °F 87% 29.96 in 10.0 mi SSE 3.5 mph - N/A   Clear
9:53 AM 75.9 °F 69.1 °F 79% 29.98 in 10.0 mi South 8.1 mph - N/A   Clear
10:53 AM 78.1 °F 68.0 °F 71% 29.97 in 10.0 mi SSW 10.4 mph - N/A   Mostly Cloudy
11:53 AM 79.0 °F 68.0 °F 69% 29.94 in 10.0 mi SSW 13.8 mph - N/A   Clear
12:53 PM 79.0 °F 70.0 °F 74% 29.92 in 10.0 mi SSW 17.3 mph - N/A   Clear
1:53 PM 79.0 °F 70.0 °F 74% 29.91 in 10.0 mi SSW 13.8 mph - N/A   Clear
2:53 PM 78.1 °F 70.0 °F 76% 29.91 in 10.0 mi SSW 11.5 mph - N/A   Scattered Clouds
3:53 PM 77.0 °F 70.0 °F 79% 29.92 in 10.0 mi SW 9.2 mph - N/A   Scattered Clouds
4:53 PM 75.9 °F 70.0 °F 82% 29.93 in 10.0 mi SW 5.8 mph - N/A   Partly Cloudy
7:53 PM 73.9 °F 72.0 °F 93% 29.95 in 10.0 mi SSW 5.8 mph - N/A   Overcast
8:53 PM 73.0 °F 72.0 °F 96% 29.96 in 10.0 mi WSW 4.6 mph - N/A   Scattered Clouds
9:53 PM 72.0 °F 71.1 °F 97% 29.97 in 7.0 mi Calm Calm - N/A   Clear
10:53 PM 70.0 °F 69.1 °F 97% 29.96 in 6.0 mi Calm Calm - N/A   Clear
11:53 PM 68.0 °F 68.0 °F 100% 29.95 in 2.5 mi Calm Calm - N/A   Clear